Location: Limerick
(52.6800°N, 8.6400°W)
Time: 16:52:25
(UTC+00:00)

Daily predictions for brighter satellites

Satellite Brightness Start Highest point End
(mag) Time Altitude Azimuth Time Altitude Azimuth Time Altitude Azimuth
Cosmos 2151 Rocket 3.8 18:34:51 10° S 18:39:15 53° E 18:43:42 10° NNE
Cosmos 1025 Rocket 4.0 18:36:58 10° N 18:40:42 26° ENE 18:44:26 10° SE
Cosmos 2322 Rocket 3.9 18:36:26 10° NW 18:41:35 38° WSW 18:46:43 10° S
ALOS 2.8 18:38:33 10° SE 18:42:52 39° ENE 18:47:13 10° N
Cosmos 1340 2.6 18:40:42 10° N 18:44:31 74° ENE 18:48:18 10° SSE
FENGYUN 3A 4.0 18:43:30 10° SE 18:48:39 47° ENE 18:53:51 10° N
NOAA 12 4.1 18:43:32 10° SSE 18:48:52 77° ENE 18:54:13 10° NNW
SKYMED 2 3.5 18:44:44 10° NNE 18:49:06 70° ESE 18:53:26 10° S
Cosmos 1833 Rocket 4.4 18:48:59 10° W 18:53:54 30° NW 18:58:50 10° NNE
Cosmos 407 Rocket 3.5 18:49:34 10° SSW 18:54:50 79° ESE 19:00:13 10° NNE
USA 229 DEB 3.8 18:50:20 10° NW 18:57:27 80° NE 19:04:41 10° SE
USA 229 3.8 18:50:26 10° NW 18:57:33 80° NE 19:04:48 10° SE
Meteor 1-20 Rocket 4.4 18:54:04 10° SSW 18:59:56 88° WNW 19:05:49 10° NNE
FengYun 1-2 T 4.3 18:55:00 10° SE 19:00:21 56° ENE 19:05:46 10° N
Cosmos 2322 4.1 18:55:32 10° NW 19:01:15 69° WSW 19:06:54 10° SSE
Okean 1-7 Rocket 3.8 18:57:10 10° N 19:01:37 50° ENE 19:05:59 10° SSE
Cosmos 676 Rocket 4.0 18:56:29 10° S 19:01:38 65° ESE 19:06:50 10° NNE
Cosmos 1536 Rocket 4.1 18:58:04 10° NNW 19:02:32 67° W 19:06:58 10° S
Meteor 1-28 Rocket 3.2 18:58:48 10° NNE 19:02:37 80° E 19:06:27 10° S
Meteor 1-19 Rocket 4.2 18:58:24 10° NNW 19:04:06 82° ENE 19:09:52 10° SSE
Cosmos 1818 3.6 18:59:08 10° SSW 19:04:32 69° SE 19:10:00 10° NE
USA 186 3.3 19:03:52 14° E 19:04:42 15° ENE 19:06:29 10° NNE
Cosmos 1570 Rocket 4.0 19:00:44 10° NNW 19:06:01 83° ENE 19:11:16 10° SSE
METEOR-M 4.3 19:01:01 10° SSE 19:06:22 82° WSW 19:11:45 10° NNW
Genesis I 4.1 19:04:00 10° NW 19:07:51 51° SW 19:11:40 10° SSE
NOSS 2-2 (E) 4.5 19:04:16 10° WSW 19:08:35 54° NNW 19:14:02 10° NE
Cosmos 1140 Rocket 3.7 19:04:27 10° S 19:09:23 49° ESE 19:14:23 10° NE
NOSS 3-1 (A) 4.2 19:02:49 10° NW 19:09:45 53° NNE 19:16:52 13° ESE
Cosmos 614 Rocket 4.3 19:08:23 10° S 19:13:07 41° ESE 19:17:51 10° NE
TSX-5 3.3 19:11:25 10° SSW 19:14:33 61° ESE 19:18:02 10° NE
ATLAS 2AS CENTAUR R/B 3.9 19:07:15 10° WNW 19:14:51 40° N 19:21:30 13° ENE
USA 215 3.4 19:08:46 10° ENE 19:15:20 80° NNW 19:21:52 10° WSW
Cosmos 2237 Rocket 2.7 19:12:20 10° NNW 19:17:47 43° NE 19:22:36 13° ESE
Cosmos 2333 4.2 19:12:23 10° NNW 19:18:09 85° ENE 19:23:56 10° SSE
FREGAT/IRIS 3.0 19:15:21 10° S 19:18:26 69° W 19:21:33 10° NNW
COSMOS 2428 2.8 19:12:58 10° NNW 19:18:42 86° WSW 19:24:24 10° SSE
Cosmos 468 Rocket 4.3 19:14:10 10° NNW 19:19:16 49° ENE 19:24:21 10° SE
Gbstr 26 Del rocket 4.0 19:17:07 10° SSW 19:20:07 23° SE 19:21:43 17° ESE
SL-19 R/B 4.4 19:16:17 10° SSE 19:22:04 75° ENE 19:28:20 10° NNW
Meteor 2-4 Rocket 3.6 19:17:26 10° NNW 19:23:04 84° ENE 19:28:31 10° SSE
Cosmos 1633 2.5 19:20:44 10° S 19:24:25 87° E 19:28:08 10° NNE
Cosmos 1437 4.0 19:22:00 10° N 19:24:45 23° ENE 19:25:23 22° E
Meteor 1-23 Rocket 4.2 19:19:38 10° N 19:25:29 74° ENE 19:31:15 10° SSE
NOSS 3-1 (C) 4.0 19:21:25 10° NW 19:28:33 68° NE 19:35:32 15° ESE
SJ-6B 3.4 19:26:04 10° S 19:29:58 59° WSW 19:33:50 10° NNW
Spot 2 Rocket 3.4 19:25:00 10° SSE 19:30:02 75° ENE 19:35:09 10° NNW
Cosmos 2360 Rocket 3.7 19:26:00 10° NW 19:31:12 39° WSW 19:36:24 10° S
Cosmos 2219 Rocket 2.1 19:26:28 10° NNW 19:32:06 74° ENE 19:37:42 10° SE
Cosmos 1238 Rocket 3.7 19:29:35 10° NNW 19:32:25 38° W 19:35:12 10° SSW
Cosmos 405 Rocket 3.1 19:30:14 10° N 19:34:12 46° ENE 19:37:40 13° SE
Cosmos 1300 Rocket 3.6 19:29:58 10° S 19:34:25 89° W 19:38:55 10° N
Okean 2 3.5 19:30:50 10° N 19:34:57 55° ENE 19:39:03 10° SSE
Cosmos 2208 Rocket 4.5 19:29:57 10° NNW 19:35:23 68° WSW 19:40:45 10° SSE
COSMO-SKYMED 1 3.8 19:32:59 10° N 19:37:08 44° WNW 19:41:15 10° SW
Helios 1B rocket 3.4 19:34:01 10° NE 19:37:30 25° E 19:40:57 10° SSE
Helios 1A 3.1 19:34:04 10° SE 19:38:06 52° ENE 19:42:10 10° N
Cosmos 1814 Rocket 4.1 19:33:50 10° NNW 19:38:56 52° ENE 19:42:40 18° SE
CZ-4B DEB 3.5 19:38:44 31° ENE 19:38:58 31° ENE 19:41:47 10° N
Cosmos 2219 3.4 19:37:13 10° S 19:42:42 48° ESE 19:48:11 10° NE
CZ-2D R/B 3.1 19:39:05 10° SSE 19:42:52 68° ENE 19:46:42 10° N
Cosmos 1850 Rocket 4.0 19:39:01 10° S 19:44:15 62° ESE 19:49:34 10° NNE
H-2A R/B 2.6 19:40:50 10° SSE 19:44:33 89° WSW 19:48:22 10° NNW
Resurs 01 Rocket 1.7 19:42:08 10° SSE 19:46:32 78° WSW 19:50:59 10° NNW
Envisat 3.4 19:43:32 20° ESE 19:46:33 40° ENE 19:51:17 10° N
ERS-1 Rocket 3.9 19:45:16 24° E 19:46:45 29° ENE 19:51:02 10° N
Cosmos 2227 Rocket 4.1 19:42:55 10° SE 19:43:21 11° SE 19:43:21 11° SE
Cosmos 1954 Rocket 4.3 19:44:58 10° SW 19:50:10 69° WNW 19:55:27 10° NNE
SL-16 R/B 2.8 19:47:18 10° NNW 19:52:37 38° NE 19:54:54 27° E
Cosmos 2074 Rocket 3.9 19:47:33 10° S 19:53:46 71° E 20:00:04 10° NNE
Cosmos 2184 Rocket 3.9 19:52:33 10° S 19:58:49 73° E 20:05:04 10° NNE
Cosmos 1939 Rocket 3.4 19:58:40 36° ENE 19:58:56 37° ENE 20:02:38 10° N
Cosmos 1536 2.9 19:55:19 10° SSW 19:59:18 77° W 20:03:19 10° N
Resurs 1-3 3.9 19:55:35 10° S 19:59:57 68° WSW 20:04:22 10° NNW
Cosmos 1441 Rocket 3.5 20:01:00 10° N 20:04:51 46° ENE 20:05:08 45° E
Cosmos 332 Rocket 4.0 20:00:25 10° NNW 20:05:14 52° ENE 20:06:47 37° ESE
Meteor 1-11 Rocket 4.3 20:01:26 10° SSW 20:07:15 64° WNW 20:13:12 10° N
ATLAS CENTAUR R/B 3.6 20:06:08 10° NW 20:08:42 16° N 20:10:44 11° NNE
H-2A R/B 4.4 20:11:02 11° NNE 20:11:02 11° NNE 20:11:31 10° NNE
Nadezhda 3 Rocket 3.9 20:04:43 10° N 20:10:55 72° ENE 20:17:03 10° SSE
Cosmos 1892 Rocket 3.5 20:06:47 10° NNW 20:11:10 86° W 20:14:59 13° S
Aureole 2 Rocket 3.5 20:08:37 10° NNW 20:11:10 31° NNE 20:11:10 31° NNE
Spot 1 4.2 20:08:49 11° S 20:12:47 71° WSW 20:17:02 10° NNW
Okean 1 Rocket 4.0 20:08:35 10° SSW 20:12:58 51° WNW 20:17:21 10° N
Cosmos 2333 Rocket 2.4 20:07:22 10° NW 20:13:08 74° WSW 20:17:41 17° SSE
Meteor 2-13 Rocket 4.3 20:09:33 10° S 20:15:34 67° E 20:21:38 10° NNE
Cosmos 371 Rocket 3.5 20:10:51 10° NNW 20:15:38 50° ENE 20:16:30 45° E
Cosmos 1980 3.7 20:11:13 10° NNW 20:16:54 82° WSW 20:20:26 24° SSE
Cosmos 1025 Rocket 4.3 20:14:20 10° NNW 20:18:29 42° W 20:22:37 10° SSW
H-2A R/B 3.7 20:20:00 20° NE 20:20:00 20° NE 20:23:26 10° N
ALOS 4.0 20:16:10 10° SSW 20:20:23 33° W 20:24:38 10° NNW
Cosmos 841 Rocket 3.4 20:17:34 10° NNW 20:22:44 68° ENE 20:24:08 46° SE
NOSS 0 Rocket 4.3 20:18:56 10° NW 20:25:01 62° WSW 20:29:54 16° SSE
Cosmos 2341 Rocket 4.1 20:18:56 10° SSE 20:25:03 51° E 20:31:12 10° NNE
Cosmos 2154 Rocket 3.9 20:21:49 10° S 20:28:06 67° E 20:34:24 10° NNE
SJ-11-01 4.2 20:27:49 41° SSE 20:29:30 83° ENE 20:34:18 10° NNW
GEOS 3 Rocket 3.6 20:29:03 45° ENE 20:30:22 59° SE 20:35:35 10° SSW
Cosmos 1763 Rocket 3.4 20:29:21 10° NNW 20:34:29 85° WSW 20:36:09 44° SSE
USA 186 3.1 20:35:16 36° W 20:35:16 36° W 20:37:49 10° NNW
Cosmos 1727 Rocket 4.5 20:29:43 10° N 20:35:36 39° ENE 20:35:40 39° ENE
Cosmos 1741 Rocket 4.5 20:31:25 10° SW 20:36:35 60° WNW 20:41:46 10° NNE
Cosmos 1544 Rocket 3.4 20:40:01 45° SSW 20:41:20 87° W 20:45:41 10° N
Cosmos 540 Rocket 3.8 20:37:09 10° NNW 20:41:53 48° NE 20:41:53 48° NE
Terra 4.0 20:46:19 14° NNE 20:46:19 14° NNE 20:47:33 10° NNE
Cosmos 836 Rocket 4.4 20:44:42 10° NNW 20:50:02 72° ENE 20:50:12 72° ENE
Cosmos 1602 Rocket 3.7 20:45:43 10° N 20:49:39 69° N 20:49:39 69° N
Cosmos 1626 Rocket 3.7 20:51:11 10° NNW 20:55:16 72° NW 20:55:16 72° NW
Meteor 1-12 Rocket 4.2 20:51:31 10° S 20:57:30 84° E 21:03:26 10° NNE
USA 215 3.5 20:55:51 40° ENE 20:58:08 62° N 21:04:34 10° WNW
SPOT 1/Viking Rocket 4.5 21:01:13 35° NNE 21:01:13 35° NNE 21:04:43 10° N
Cosmos 962 Rocket 4.3 20:54:16 10° S 21:00:26 84° E 21:06:37 10° NNE
NOSS 3-1 (A) 4.2 20:53:49 10° NW 21:01:07 67° SW 21:04:21 39° SSE
Cosmos 2237 Rocket 3.1 20:56:31 10° NW 21:01:56 45° WSW 21:04:29 28° SSW
Cosmos 1603 4.2 20:56:55 10° NNW 21:02:00 45° NE 21:02:00 45° NE
ATLAS 2AS CENTAUR R/B 3.1 20:59:08 10° NW 21:07:17 66° NE 21:08:57 54° E
ARGOS 3.6 21:08:39 50° NNE 21:08:39 50° NNE 21:12:57 10° N
Meteor 1-21 4.1 21:07:07 10° NNW 21:12:42 83° NNE 21:12:42 83° NNE
Helios 1B rocket 3.6 21:09:02 10° N 21:12:58 42° WNW 21:16:54 10° SW
Meteor 2-19 Rocket 4.4 21:14:15 72° NE 21:14:15 72° NE 21:19:55 10° NNE
Cosmos 2219 Rocket 4.2 21:11:11 10° NW 21:15:31 23° WSW 21:19:50 10° SSW
SPOT 5 3.5 21:17:59 50° N 21:17:59 50° N 21:21:50 10° NNW
Cosmos 1455 Rocket 4.3 21:20:13 38° NNW 21:20:13 38° NNW 21:23:20 10° N
MetOp-B 4.3 21:23:11 68° NNW 21:23:11 68° NNW 21:27:51 10° NNW
ERS-1 Rocket 3.5 21:25:15 54° WSW 21:25:17 54° W 21:30:16 10° NNW
Envisat 4.3 21:23:44 27° SW 21:25:38 36° W 21:30:21 10° NNW
Cosmos 2219 4.4 21:21:33 10° WSW 21:26:59 41° NW 21:32:26 10° NNE
Cosmos 2227 Rocket 4.3 21:24:28 10° SSW 21:38:07 - NNE 21:25:23 15° SSW
SL-16 R/B 2.8 21:31:27 10° NW 21:36:49 52° WSW 21:36:49 52° WSW
Cosmos 1943 4.3 21:37:39 10° NNW 21:41:29 36° N 21:41:29 36° N
SL-8 Rocket 4.2 21:44:57 68° NNW 21:44:57 68° NNW 21:50:33 10° N
H-2A R/B 4.5 21:48:09 18° N 21:48:09 18° N 21:49:15 10° NNW
ATLAS CENTAUR R/B 4.1 21:46:06 10° NNW 21:47:02 14° NNW 21:47:02 14° NNW
H-2A R/B 3.4 22:00:38 36° NNW 22:00:38 36° NNW 22:03:47 10° NNW
Terra 4.3 22:25:12 18° NNW 22:25:12 18° NNW 22:26:24 10° NNW
USA 215 4.1 22:43:11 45° WNW 22:43:11 45° WNW 22:47:30 10° WNW
ATLAS 2AS CENTAUR R/B 3.9 22:50:33 10° NW 22:56:23 42° W 22:56:23 42° W
